Location: *
(41.7492°S, 135.4150°W)
Time: 23:54:09
(UTC+00:00)

deb Explorer IX - All Passes

Search period start: 28 May 2022 00:00
Search period end: 07 June 2022 00:00
Orbit: 535 x 1070 km, 38.8° (Epoch: 27 May)

Date Brightness Start Highest point End Pass type
(mag) Time Alt. Az. Time Alt. Az. Time Alt. Az.
28 May - 06:56:37 10° NNW 06:59:41 20° NNE 07:02:57 10° ENE night (unlit)
28 May - 08:41:08 10° WNW 08:45:24 51° NNE 08:50:17 10° E night (unlit)
28 May - 10:26:55 10° W 10:31:37 61° N 10:37:07 10° ENE night (unlit)
28 May - 12:13:05 10° W 12:17:52 37° NNW 12:23:23 10° NE visible
28 May - 14:01:00 10° WNW 14:03:52 14° NW 14:06:53 10° N visible
29 May - 06:27:52 10° NNW 06:30:43 18° NNE 06:33:42 10° ENE night (unlit)
29 May - 08:12:15 10° WNW 08:16:23 48° NNE 08:21:04 10° E night (unlit)
29 May - 09:58:01 10° W 10:02:33 61° N 10:07:50 10° ENE night (unlit)
29 May - 11:44:09 10° W 11:48:47 37° NNW 11:54:06 10° NE visible
29 May - 13:31:55 10° WNW 13:34:45 14° NNW 13:37:46 10° N visible
30 May - 05:59:05 10° N 06:01:44 17° NNE 06:04:27 10° ENE night (unlit)
30 May - 07:43:21 10° WNW 07:47:22 46° NNE 07:51:51 10° E night (unlit)
30 May - 09:29:05 10° W 09:33:30 61° N 09:38:34 10° ENE night (unlit)
30 May - 11:15:11 10° W 11:19:40 37° NNW 11:24:50 10° NE night (unlit)
30 May - 13:02:49 10° WNW 13:05:39 14° NNW 13:08:38 10° N visible
31 May - 05:30:18 10° N 05:32:44 15° NNE 05:35:12 10° ENE night (unlit)
31 May - 07:14:25 10° WNW 07:18:21 44° NNE 07:22:38 10° E night (unlit)
31 May - 09:00:08 10° W 09:04:26 60° N 09:09:18 10° ENE night (unlit)
31 May - 10:46:13 10° W 10:50:34 37° NNW 10:55:33 10° NE night (unlit)
31 May - 12:33:45 10° WNW 12:36:31 14° NNW 12:39:27 10° N visible
01 Jun - 05:01:29 10° N 05:03:42 14° NNE 05:05:55 10° ENE night (unlit)
01 Jun - 06:45:27 10° NW 06:49:19 42° NNE 06:53:27 10° E night (unlit)
01 Jun - 08:31:10 10° W 08:35:21 60° N 08:40:03 10° ENE night (unlit)
01 Jun - 10:17:14 10° W 10:21:28 38° NNW 10:26:16 10° NE night (unlit)
01 Jun - 12:04:40 10° WNW 12:07:23 14° NNW 12:10:16 10° N night (unlit)
02 Jun - 04:32:38 10° N 04:34:39 13° NNE 04:36:40 10° ENE visible
02 Jun - 06:16:27 10° NW 06:20:16 40° NNE 06:24:16 10° E night (unlit)
02 Jun - 08:02:10 10° W 08:06:16 59° N 08:10:47 10° ENE night (unlit)
02 Jun - 09:48:14 10° W 09:52:21 38° NNW 09:56:59 10° NE night (unlit)
02 Jun - 11:35:35 10° WNW 11:38:14 14° NNW 11:41:04 10° N night (unlit)
03 Jun - 04:03:47 10° N 04:05:35 13° NNE 04:07:22 10° ENE visible
03 Jun - 05:47:24 10° NW 05:51:12 38° NNE 05:55:05 10° E night (unlit)
03 Jun - 07:33:07 10° W 07:37:10 59° N 07:41:34 10° ENE night (unlit)
03 Jun - 09:19:13 10° W 09:23:14 38° NNW 09:27:43 10° NE night (unlit)
03 Jun - 11:06:29 10° WNW 11:09:05 15° NNW 11:11:51 10° N night (unlit)
04 Jun - 03:34:52 10° N 03:36:29 12° NNE 03:38:04 10° NE visible
04 Jun - 05:18:19 10° NW 05:22:06 36° NNE 05:25:55 10° E visible
04 Jun - 07:04:03 10° W 07:08:04 58° N 07:12:20 10° E night (unlit)
04 Jun - 08:50:09 10° W 08:54:06 39° NNW 08:58:27 10° NE night (unlit)
04 Jun - 10:37:22 10° WNW 10:39:55 15° NNW 10:42:39 10° N night (unlit)
05 Jun - 03:05:56 10° NNE 03:07:21 11° NNE 03:08:45 10° NE visible
05 Jun - 04:49:11 10° NW 04:53:00 35° NNE 04:56:45 10° E visible
05 Jun - 06:34:56 10° WNW 06:38:57 58° N 06:43:06 10° E night (unlit)
05 Jun - 08:21:04 10° W 08:24:58 39° NNW 08:29:11 10° NE night (unlit)
05 Jun - 10:08:14 10° WNW 10:10:46 15° NNW 10:13:27 10° N night (unlit)
06 Jun - 02:36:58 10° NNE 02:38:12 11° NNE 02:39:25 10° NE visible
06 Jun - 04:20:01 10° NW 04:23:51 34° NNE 04:27:35 10° E visible
06 Jun - 06:05:47 10° WNW 06:09:49 57° N 06:13:54 10° E night (unlit)
06 Jun - 07:51:57 10° W 07:55:49 40° NNW 07:59:56 10° NE night (unlit)
06 Jun - 09:39:03 10° WNW 09:41:36 15° NNW 09:44:15 10° N night (unlit)
